Cruise inventory

RV Lough Foyle LF2/89

Cruise plan

Cruise Info. 
Ship name (ship code)RV Lough Foyle (74LG)
Cruise identifierLF2/89
Cruise period1989-08-04 — 1989-08-10
StatusCompleted
ObjectivesWorking the DML Rockall Trough CTD section (Ellett Line).
Chief scientistDavid J Ellett (Dunstaffnage Marine Laboratory)
ProjectEllett Line
Measurements 
Physical oceanography 
CTD stationsQuantity: number of stations = 111
Data held at BODC 
Series/Profiles 
111  CTD/STD cast
Vertical spatial coordinates
Salinity of the water column
Temperature of the water column
Vertical spatial coordinates
Salinity of the water column
Temperature of the water column

BODC idDate/TimeLocationDoc.
3185341989-08-10 02:37 57° 34' 59" N  6° 59' 24" W  View metadata report for BODC series reference number 318534
3185461989-08-10 03:07 57° 34' 0" N  6° 53' 48" W  View metadata report for BODC series reference number 318546
3185581989-08-10 03:44 57° 32' 53" N  6° 48' 36" W  View metadata report for BODC series reference number 318558
3185711989-08-10 04:11 57° 32' 12" N  6° 44' 30" W  View metadata report for BODC series reference number 318571
3185831989-08-10 04:39 57° 31' 0" N  6° 40' 59" W  View metadata report for BODC series reference number 318583
3185951989-08-10 06:37 57° 18' 47" N  6° 32' 12" W  View metadata report for BODC series reference number 318595
3186021989-08-10 07:07 57° 16' 0" N  6° 33' 24" W  View metadata report for BODC series reference number 318602
3186141989-08-10 07:36 57° 13' 36" N  6° 34' 30" W  View metadata report for BODC series reference number 318614
3186261989-08-10 08:13 57° 10' 23" N  6° 38' 35" W  View metadata report for BODC series reference number 318626
3186381989-08-10 09:03 57° 6' 17" N  6° 44' 17" W  View metadata report for BODC series reference number 318638
3186511989-08-10 09:48 57° 2' 17" N  6° 49' 54" W  View metadata report for BODC series reference number 318651
3186631989-08-10 10:40 56° 59' 5" N  6° 37' 59" W  View metadata report for BODC series reference number 318663
3186751989-08-10 11:24 56° 56' 23" N  6° 29' 6" W  View metadata report for BODC series reference number 318675
3186871989-08-10 12:03 56° 53' 59" N  6° 20' 59" W  View metadata report for BODC series reference number 318687
3186991989-08-10 12:39 56° 51' 29" N  6° 12' 11" W  View metadata report for BODC series reference number 318699
3187061989-08-10 13:15 56° 49' 23" N  6° 4' 59" W  View metadata report for BODC series reference number 318706
3187181989-08-10 13:50 56° 47' 59" N  5° 55' 59" W  View metadata report for BODC series reference number 318718
3179481989-08-07 16:14 55° 46' 0" N  6° 30' 0" W  View metadata report for BODC series reference number 317948
3179611989-08-07 17:58 55° 42' 0" N  6° 21' 54" W  View metadata report for BODC series reference number 317961
3179731989-08-07 18:36 55° 37' 18" N  6° 25' 54" W  View metadata report for BODC series reference number 317973
3179851989-08-07 19:18 55° 32' 42" N  6° 29' 42" W  View metadata report for BODC series reference number 317985
3179971989-08-07 19:59 55° 27' 54" N  6° 33' 29" W  View metadata report for BODC series reference number 317997
3180001989-08-07 20:41 55° 23' 17" N  6° 37' 12" W  View metadata report for BODC series reference number 318000
3180121989-08-07 21:24 55° 18' 42" N  6° 41' 12" W  View metadata report for BODC series reference number 318012
3180241989-08-07 22:04 55° 13' 59" N  6° 44' 48" W  View metadata report for BODC series reference number 318024
3180361989-08-08 00:24 55° 9' 29" N  6° 0' 0" W  View metadata report for BODC series reference number 318036
3180481989-08-08 00:57 55° 11' 12" N  5° 56' 6" W  View metadata report for BODC series reference number 318048
3180611989-08-08 01:27 55° 13' 0" N  5° 52' 0" W  View metadata report for BODC series reference number 318061
3180731989-08-08 02:02 55° 15' 11" N  5° 47' 35" W  View metadata report for BODC series reference number 318073
3180851989-08-08 02:30 55° 16' 59" N  5° 43' 59" W  View metadata report for BODC series reference number 318085
3180971989-08-08 06:22 54° 40' 0" N  5° 30' 0" W  View metadata report for BODC series reference number 318097
3181041989-08-08 06:49 54° 41' 35" N  5° 25' 0" W  View metadata report for BODC series reference number 318104
3181161989-08-08 07:21 54° 43' 18" N  5° 20' 5" W  View metadata report for BODC series reference number 318116
3181281989-08-08 07:53 54° 44' 53" N  5° 15' 6" W  View metadata report for BODC series reference number 318128
3181411989-08-08 08:31 54° 46' 23" N  5° 9' 54" W  View metadata report for BODC series reference number 318141
3181531989-08-08 09:03 54° 47' 59" N  5° 4' 59" W  View metadata report for BODC series reference number 318153
3181651989-08-08 11:24 54° 40' 0" N  4° 30' 0" W  View metadata report for BODC series reference number 318165
3181771989-08-08 11:55 54° 35' 30" N  4° 29' 17" W  View metadata report for BODC series reference number 318177
3181891989-08-08 12:24 54° 32' 5" N  4° 28' 48" W  View metadata report for BODC series reference number 318189
3181901989-08-08 12:56 54° 28' 47" N  4° 28' 18" W  View metadata report for BODC series reference number 318190
3182081989-08-08 13:25 54° 25' 29" N  4° 28' 0" W  View metadata report for BODC series reference number 318208
3182211989-08-08 14:38 54° 19' 0" N  4° 13' 59" W  View metadata report for BODC series reference number 318221
3182331989-08-08 15:25 54° 22' 59" N  4° 3' 6" W  View metadata report for BODC series reference number 318233
3182451989-08-08 16:09 54° 25' 5" N  3° 57' 6" W  View metadata report for BODC series reference number 318245
3182571989-08-08 16:52 54° 28' 0" N  3° 57' 6" W  View metadata report for BODC series reference number 318257
3182691989-08-08 17:28 54° 30' 0" N  3° 42' 0" W  View metadata report for BODC series reference number 318269
3182701989-08-08 23:08 54° 55' 0" N  5° 13' 59" W  View metadata report for BODC series reference number 318270
3182821989-08-08 23:50 55° 1' 0" N  5° 19' 59" W  View metadata report for BODC series reference number 318282
3182941989-08-09 00:36 55° 4' 54" N  5° 25' 59" W  View metadata report for BODC series reference number 318294
3183011989-08-09 01:20 55° 8' 59" N  5° 31' 59" W  View metadata report for BODC series reference number 318301
3183131989-08-09 02:08 55° 13' 0" N  5° 38' 5" W  View metadata report for BODC series reference number 318313
3183491989-08-09 05:28 55° 37' 5" N  5° 52' 59" W  View metadata report for BODC series reference number 318349
3183501989-08-09 05:54 55° 38' 5" N  5° 57' 0" W  View metadata report for BODC series reference number 318350
3183621989-08-09 06:20 55° 39' 6" N  6° 1' 0" W  View metadata report for BODC series reference number 318362
3183741989-08-09 08:55 56° 5' 35" N  5° 52' 54" W  View metadata report for BODC series reference number 318374
3183861989-08-09 09:24 56° 7' 59" N  5° 55' 41" W  View metadata report for BODC series reference number 318386
3183981989-08-09 09:57 56° 10' 59" N  5° 58' 59" W  View metadata report for BODC series reference number 318398
3184051989-08-09 10:28 56° 13' 59" N  6° 2' 6" W  View metadata report for BODC series reference number 318405
3184171989-08-09 10:57 56° 16' 29" N  6° 4' 59" W  View metadata report for BODC series reference number 318417
3184291989-08-09 13:36 55° 52' 59" N  6° 28' 59" W  View metadata report for BODC series reference number 318429
3184301989-08-09 14:09 55° 57' 0" N  6° 34' 59" W  View metadata report for BODC series reference number 318430
3184421989-08-09 14:50 56° 1' 0" N  6° 40' 59" W  View metadata report for BODC series reference number 318442
3184541989-08-09 15:34 56° 4' 59" N  6° 47' 12" W  View metadata report for BODC series reference number 318454
3184661989-08-09 16:19 56° 8' 59" N  6° 52' 59" W  View metadata report for BODC series reference number 318466
3184781989-08-09 17:12 56° 13' 5" N  6° 59' 6" W  View metadata report for BODC series reference number 318478
3184911989-08-09 17:51 56° 16' 59" N  7° 4' 59" W  View metadata report for BODC series reference number 318491
3185091989-08-09 22:42 57° 5' 24" N  7° 0' 29" W  View metadata report for BODC series reference number 318509
3185101989-08-09 23:31 57° 8' 17" N  7° 10' 59" W  View metadata report for BODC series reference number 318510
3185221989-08-10 02:09 57° 36' 6" N  7° 4' 12" W  View metadata report for BODC series reference number 318522
3179361989-08-07 15:38 55° 46' 0" N  6° 37' 23" W  View metadata report for BODC series reference number 317936
3178811989-08-07 12:01 55° 46' 0" N  7° 28' 41" W  View metadata report for BODC series reference number 317881
3178931989-08-07 12:51 55° 46' 0" N  7° 16' 30" W  View metadata report for BODC series reference number 317893
3179001989-08-07 13:38 55° 46' 0" N  7° 4' 0" W  View metadata report for BODC series reference number 317900
3179121989-08-07 14:16 55° 46' 0" N  6° 55' 29" W  View metadata report for BODC series reference number 317912
3179241989-08-07 14:59 55° 46' 0" N  6° 46' 30" W  View metadata report for BODC series reference number 317924
3175061989-08-04 14:26 56° 40' 0" N  6° 7' 59" W  View metadata report for BODC series reference number 317506
3175181989-08-04 17:48 56° 41' 6" N  6° 16' 48" W  View metadata report for BODC series reference number 317518
3175311989-08-04 18:31 56° 44' 5" N  6° 26' 48" W  View metadata report for BODC series reference number 317531
3175431989-08-04 20:03 56° 44' 5" N  6° 45' 53" W  View metadata report for BODC series reference number 317543
3175551989-08-04 21:24 56° 44' 5" N  7° 0' 6" W  View metadata report for BODC series reference number 317555
3175671989-08-04 23:45 56° 43' 41" N  7° 20' 17" W  View metadata report for BODC series reference number 317567
3175791989-08-05 00:36 56° 43' 59" N  7° 30' 6" W  View metadata report for BODC series reference number 317579
3175801989-08-05 01:22 56° 43' 59" N  7° 40' 0" W  View metadata report for BODC series reference number 317580
3175921989-08-05 03:15 56° 47' 5" N  8° 0' 6" W  View metadata report for BODC series reference number 317592
3176111989-08-05 04:40 56° 50' 17" N  8° 19' 59" W  View metadata report for BODC series reference number 317611
3176231989-08-05 05:30 56° 53' 12" N  8° 30' 0" W  View metadata report for BODC series reference number 317623
3176351989-08-05 07:17 56° 57' 0" N  8° 46' 54" W  View metadata report for BODC series reference number 317635
3176471989-08-05 08:20 57° 0' 0" N  8° 59' 53" W  View metadata report for BODC series reference number 317647
3176591989-08-05 09:54 57° 2' 59" N  9° 13' 0" W  View metadata report for BODC series reference number 317659
3176601989-08-05 11:00 57° 6' 0" N  9° 25' 0" W  View metadata report for BODC series reference number 317660
3176721989-08-05 12:36 57° 8' 59" N  9° 41' 59" W  View metadata report for BODC series reference number 317672
3176841989-08-05 14:34 57° 14' 5" N  10° 3' 6" W  View metadata report for BODC series reference number 317684
3176961989-08-05 16:36 57° 17' 59" N  10° 22' 59" W  View metadata report for BODC series reference number 317696
3177031989-08-05 19:12 57° 22' 0" N  10° 40' 0" W  View metadata report for BODC series reference number 317703
3177151989-08-05 20:57 57° 23' 59" N  10° 52' 23" W  View metadata report for BODC series reference number 317715
3177271989-08-05 22:14 57° 26' 53" N  11° 4' 54" W  View metadata report for BODC series reference number 317727
3177391989-08-05 23:23 57° 28' 0" N  11° 19' 0" W  View metadata report for BODC series reference number 317739
3183251989-08-09 04:47 55° 35' 6" N  5° 45' 0" W  View metadata report for BODC series reference number 318325
3183371989-08-09 05:05 55° 36' 0" N  5° 49' 0" W  View metadata report for BODC series reference number 318337
3177401989-08-06 00:46 57° 28' 59" N  11° 31' 54" W  View metadata report for BODC series reference number 317740
3177521989-08-06 02:52 57° 29' 30" N  11° 50' 59" W  View metadata report for BODC series reference number 317752
3177641989-08-06 05:17 57° 30' 35" N  12° 15' 0" W  View metadata report for BODC series reference number 317764
3177761989-08-06 07:35 57° 31' 59" N  12° 37' 59" W  View metadata report for BODC series reference number 317776
3177881989-08-06 09:22 57° 32' 30" N  12° 52' 5" W  View metadata report for BODC series reference number 317788
3178071989-08-06 10:26 57° 32' 59" N  13° 0' 47" W  View metadata report for BODC series reference number 317807
3178191989-08-06 11:49 57° 34' 0" N  13° 20' 6" W  View metadata report for BODC series reference number 317819
3178201989-08-06 13:03 57° 34' 59" N  13° 37' 59" W  View metadata report for BODC series reference number 317820
3178321989-08-07 05:46 55° 46' 29" N  9° 16' 18" W  View metadata report for BODC series reference number 317832
3178441989-08-07 07:47 55° 46' 0" N  8° 40' 0" W  View metadata report for BODC series reference number 317844
3178561989-08-07 09:57 55° 46' 0" N  8° 0' 0" W  View metadata report for BODC series reference number 317856
3178681989-08-07 11:09 55° 46' 0" N  7° 41' 17" W  View metadata report for BODC series reference number 317868